This demonstration page uses our WeatherBlox Daily Observations layout. Learn more.

Left ArrowRight Arrow

38.80484, -77.04692

Hourly Observations for November 7, 2020

Temp ( °F °C ) Dew Point ( °F °C ) Humidity (%) Winds ( mph kmh ) Pressure ( in mb ) Visibility ( mi km ) Precip ( " mm )
12:52 am 00:52 Clear 52 11.1 48 8.9 86 86 SSW 3 6 30.29 1026 9 14.48406 0 0
1:52 am 01:52 Clear 50 10 47 8.3 89 89 Calm 30.29 1026 9 14.48406 0 0
2:52 am 02:52 Clear 49 9.4 46 7.8 90 90 Calm 30.29 1026 8 12.87472 0 0
3:52 am 03:52 Clear 49 9.4 46 7.8 90 90 Calm 30.29 1026 9 14.48406 0 0
4:52 am 04:52 Clear 47 8.3 44 6.7 90 90 N 3 6 30.29 1026 8 12.87472 0 0
5:52 am 05:52 Clear 48 8.9 46 7.8 93 93 Calm 30.32 1027 7 11.26538 0 0
6:52 am 06:52 Partly Cloudy with Mist and Fog 47 8.3 45 7.2 93 93 Calm 30.32 1027 6 9.65604 0 0
7:52 am 07:52 Partly Cloudy with Mist and Fog 50 10 47 8.3 89 89 Calm 30.35 1028 5 8.0467 0 0
8:52 am 08:52 Mostly Sunny 53 11.7 50 10 89 89 S 7 11 30.35 1028 8 12.87472 0 0
9:52 am 09:52 Mostly Sunny 58 14.4 51 10.6 78 78 SSE 5 7 30.36 1028 10 16.0934 0 0
10:52 am 10:52 Mostly Sunny 63 17.2 48 8.9 58 58 S 6 9 30.35 1028 10 16.0934 0 0
11:52 am 11:52 Mostly Sunny 69 20.6 50 10 51 51 SSE 3 6 30.32 1027 10 16.0934 0 0
12:52 pm 12:52 Mostly Sunny 71 21.7 49 9.4 46 46 S 5 7 30.3 1026 10 16.0934 0 0
1:52 pm 13:52 Mostly Sunny 72 22.2 44 6.7 37 37 SSE 3 6 30.29 1026 10 16.0934 0 0
2:52 pm 14:52 Mostly Sunny 73 22.8 45 7.2 37 37 SSE 7 11 30.28 1026 10 16.0934 0 0
3:52 pm 15:52 Mostly Sunny 71 21.7 46 7.8 41 41 S 7 11 30.28 1025 10 16.0934 0 0
4:52 pm 16:52 Mostly Sunny 67 19.4 45 7.2 45 45 S 7 11 30.29 1026 10 16.0934 0 0
5:52 pm 17:52 Clear 66 18.9 47 8.3 50 50 S 7 11 30.29 1026 10 16.0934 0 0
6:52 pm 18:52 Clear 61 16.1 49 9.4 65 65 SSW 3 6 30.3 1026 10 16.0934 0 0
7:52 pm 19:52 Clear 57 13.9 51 10.6 81 81 S 5 7 30.3 1026 10 16.0934 0 0
8:52 pm 20:52 Clear 55 12.8 51 10.6 87 87 S 3 6 30.32 1027 10 16.0934 0 0
9:52 pm 21:52 Clear 55 12.8 50 10 83 83 Calm 30.32 1027 9 14.48406 0 0
10:52 pm 22:52 Clear 54 12.2 49 9.4 83 83 Calm 30.33 1027 10 16.0934 0 0
11:52 pm 23:52 Clear 53 11.7 49 9.4 86 86 Calm 30.33 1027 7 11.26538 0 0

Powered by AerisWeather